K6NC Weather Reports


Display with metric or nautical units.
time (UTC)temp
F
wind
direction
speed
MPH
gust
MPH
rain 1hr
in
rain 24hr
in
rain mn
in
humidity
%
barometer
mb
20260831033037 74 248 5.0 9.0 0.00 0.00 0.00 49 1009.6
20260831032523 74 254 5.0 8.0 0.00 0.00 0.00 49 1009.6
20260831032020 74 243 4.0 8.0 0.00 0.00 0.00 48 1009.5
20260831031540 75 246 4.0 8.0 0.00 0.00 0.00 47 1009.5
20260831031019 75 248 5.0 8.0 0.00 0.00 0.00 46 1009.4
20260831030516 76 260 5.0 8.0 0.00 0.00 0.00 46 1009.5
20260831030042 76 259 4.0 10.0 0.00 0.00 0.00 45 1009.4
20260831025519 77 242 5.0 10.0 0.00 0.00 0.00 44 1009.4
20260831025019 77 251 5.0 8.0 0.00 0.00 0.00 43 1009.4
20260831024541 78 262 5.0 9.0 0.00 0.00 0.00 42 1009.4
20260831024020 78 251 5.0 9.0 0.00 0.00 0.00 41 1009.4
20260831023520 79 247 6.0 9.0 0.00 0.00 0.00 40 1009.4
20260831023036 79 245 5.0 10.0 0.00 0.00 0.00 39 1009.3
20260831022519 80 248 4.0 10.0 0.00 0.00 0.00 38 1009.3
20260831022019 81 248 6.0 9.0 0.00 0.00 0.00 38 1009.3
20260831021539 81 248 4.0 10.0 0.00 0.00 0.00 37 1009.3
20260831021017 82 243 5.0 10.0 0.00 0.00 0.00 36 1009.4
20260831020518 82 252 6.0 10.0 0.00 0.00 0.00 36 1009.3
20260831020040 83 248 6.0 10.0 0.00 0.00 0.00 35 1009.4
20260831015517 83 240 6.0 10.0 0.00 0.00 0.00 35 1009.3
20260831015021 84 249 6.0 10.0 0.00 0.00 0.00 35 1009.3
20260831014537 84 249 5.0 10.0 0.00 0.00 0.00 34 1009.4
20260831014018 85 242 7.0 10.0 0.00 0.00 0.00 34 1009.4
20260831013520 85 238 7.0 11.0 0.00 0.00 0.00 34 1009.3
20260831013040 85 240 7.0 12.0 0.00 0.00 0.00 34 1009.3
20260831012518 85 248 8.0 12.0 0.00 0.00 0.00 33 1009.4
20260831012018 86 236 7.0 10.0 0.00 0.00 0.00 34 1009.4
20260831011539 86 254 6.0 11.0 0.00 0.00 0.00 33 1009.4
20260831011020 87 224 7.0 11.0 0.00 0.00 0.00 33 1009.3
20260831010517 87 248 7.0 11.0 0.00 0.00 0.00 33 1009.3
20260831010036 87 217 5.0 11.0 0.00 0.00 0.00 33 1009.3
20260831005518 88 265 7.0 10.0 0.00 0.00 0.00 33 1009.2
20260831005019 87 258 6.0 10.0 0.00 0.00 0.00 32 1009.3
20260831004536 88 240 6.0 9.0 0.00 0.00 0.00 31 1009.3
20260831004020 88 222 5.0 9.0 0.00 0.00 0.00 31 1009.4
20260831003519 89 260 6.0 9.0 0.00 0.00 0.00 32 1009.3
20260831003041 89 220 5.0 9.0 0.00 0.00 0.00 31 1009.4
20260831002518 89 254 5.0 9.0 0.00 0.00 0.00 30 1009.4
20260831002018 89 209 2.0 7.0 0.00 0.00 0.00 29 1009.4
20260831001538 88 238 3.0 7.0 0.00 0.00 0.00 30 1009.5
20260831001018 88 284 4.0 10.0 0.00 0.00 0.00 30 1009.5
20260831000518 89 273 7.0 10.0 0.00 0.00 0.00 30 1009.6
20260831000037 89 239 3.0 8.0 0.00 0.00 0.00 29 1009.7
20260830235520 88 267 3.0 9.0 0.00 0.00 0.00 29 1009.7
20260830235020 88 246 4.0 9.0 0.00 0.00 0.00 29 1009.7
20260830234546 89 273 4.0 8.0 0.00 0.00 0.00 32 1009.8
20260830234018 89 181 4.0 9.0 0.00 0.00 0.00 28 1009.8
20260830233517 89 230 4.0 11.0 0.00 0.00 0.00 32 1009.8
20260830233037 89 243 5.0 11.0 0.00 0.00 0.00 30 1009.8
20260830232519 89 242 4.0 8.0 0.00 0.00 0.00 28 1009.9
20260830232019 88 217 4.0 8.0 0.00 0.00 0.00 30 1009.9
20260830231539 89 202 1.0 8.0 0.00 0.00 0.00 32 1009.9
20260830231020 88 295 3.0 8.0 0.00 0.00 0.00 32 1010.0
20260830230522 89 0 2.0 10.0 0.00 0.00 0.00 29 1010.0
20260830230044 90 229 5.0 11.0 0.00 0.00 0.00 30 1010.1
20260830225517 90 241 7.0 11.0 0.00 0.00 0.00 32 1010.1
20260830225018 90 269 5.0 10.0 0.00 0.00 0.00 33 1010.1
20260830224547 89 204 5.0 10.0 0.00 0.00 0.00 33 1010.3
20260830224016 89 231 4.0 14.0 0.00 0.00 0.00 33 1010.2
20260830223518 89 196 4.0 14.0 0.00 0.00 0.00 32 1010.3
20260830223036 88 240 3.0 14.0 0.00 0.00 0.00 33 1010.4
20260830222519 88 250 6.0 8.0 0.00 0.00 0.00 34 1010.5
20260830222019 88 255 2.0 10.0 0.00 0.00 0.00 35 1010.6
20260830221540 88 286 5.0 10.0 0.00 0.00 0.00 33 1010.6
20260830221020 88 269 6.0 10.0 0.00 0.00 0.00 33 1010.8
20260830220516 88 248 6.0 10.0 0.00 0.00 0.00 33 1010.8
20260830220040 88 237 5.0 10.0 0.00 0.00 0.00 34 1010.9
20260830215518 87 342 2.0 9.0 0.00 0.00 0.00 35 1010.9
20260830215020 87 250 4.0 9.0 0.00 0.00 0.00 34 1011.0
20260830214537 86 262 2.0 10.0 0.00 0.00 0.00 37 1011.1
20260830214020 87 309 3.0 10.0 0.00 0.00 0.00 37 1011.1
20260830213518 87 284 5.0 9.0 0.00 0.00 0.00 37 1011.1
20260830213039 86 243 5.0 9.0 0.00 0.00 0.00 36 1011.3
20260830212518 86 22 3.0 12.0 0.00 0.00 0.00 37 1011.4
20260830212019 87 254 6.0 12.0 0.00 0.00 0.00 37 1011.5
20260830211535 86 292 6.0 9.0 0.00 0.00 0.00 40 1011.6
20260830211018 85 323 3.0 9.0 0.00 0.00 0.00 40 1011.7
20260830210520 85 290 2.0 7.0 0.00 0.00 0.00 40 1011.7
20260830210037 84 0 2.0 7.0 0.00 0.00 0.00 41 1011.7
20260830205520 84 355 3.0 8.0 0.00 0.00 0.00 41 1011.8
20260830205019 84 0 2.0 9.0 0.00 0.00 0.00 41 1011.8
20260830204540 84 227 5.0 9.0 0.00 0.00 0.00 40 1011.9
20260830204016 84 325 2.0 14.0 0.00 0.00 0.00 44 1011.9
20260830203518 84 252 7.0 14.0 0.00 0.00 0.00 41 1012.1
20260830203039 84 259 3.0 10.0 0.00 0.00 0.00 43 1012.1
20260830202519 84 259 2.0 10.0 0.00 0.00 0.00 43 1012.2
20260830202022 83 229 5.0 10.0 0.00 0.00 0.00 45 1012.2
20260830201542 84 280 5.0 10.0 0.00 0.00 0.00 43 1012.2
20260830201019 83 236 4.0 10.0 0.00 0.00 0.00 44 1012.2
20260830200517 83 290 4.0 9.0 0.00 0.00 0.00 45 1012.2
20260830200035 81 313 2.0 9.0 0.00 0.00 0.00 46 1012.3
20260830195517 82 275 4.0 10.0 0.00 0.00 0.00 44 1012.3
20260830195018 80 277 2.0 10.0 0.00 0.00 0.00 49 1012.3
20260830194541 81 290 5.0 10.0 0.00 0.00 0.00 45 1012.3
20260830194026 80 273 6.0 11.0 0.00 0.00 0.00 46 1012.3
20260830193516 81 302 5.0 11.0 0.00 0.00 0.00 46 1012.4
20260830193042 81 242 7.0 11.0 0.00 0.00 0.00 48 1012.5
20260830192520 80 288 2.0 11.0 0.00 0.00 0.00 48 1012.5
20260830192019 79 319 6.0 11.0 0.00 0.00 0.00 50 1012.6
20260830191540 79 293 3.0 9.0 0.00 0.00 0.00 49 1012.8
20260830191019 79 237 5.0 9.0 0.00 0.00 0.00 48 1012.9
20260830190519 79 263 1.0 9.0 0.00 0.00 0.00 52 1012.9
20260830190038 77 0 2.0 9.0 0.00 0.00 0.00 52 1012.9
20260830185516 77 263 4.0 8.0 0.00 0.00 0.00 51 1013.0
20260830185021 77 186 2.0 8.0 0.00 0.00 0.00 53 1013.1
20260830184539 78 190 4.0 8.0 0.00 0.00 0.00 51 1013.3
20260830184019 77 255 2.0 8.0 0.00 0.00 0.00 53 1013.2
20260830183519 76 252 2.0 8.0 0.00 0.00 0.00 53 1013.3
20260830183036 75 223 3.0 8.0 0.00 0.00 0.00 54 1013.1
20260830182519 74 254 2.0 8.0 0.00 0.00 0.00 56 1013.2
20260830182018 75 277 3.0 8.0 0.00 0.00 0.00 55 1013.2
20260830181536 74 276 5.0 8.0 0.00 0.00 0.00 55 1013.2
20260830181022 75 234 2.0 7.0 0.00 0.00 0.00 54 1013.1
20260830180518 74 313 1.0 6.0 0.00 0.00 0.00 57 1013.1
20260830180052 74 288 2.0 8.0 0.00 0.00 0.00 57 1013.2
20260830175517 73 286 4.0 8.0 0.00 0.00 0.00 57 1013.2
20260830175017 73 217 4.0 8.0 0.00 0.00 0.00 58 1013.3
20260830174539 73 250 3.0 8.0 0.00 0.00 0.00 57 1013.2
20260830174018 73 5 2.0 7.0 0.00 0.00 0.00 58 1013.2
20260830173515 73 298 2.0 8.0 0.00 0.00 0.00 59 1013.3
20260830173052 72 265 4.0 8.0 0.00 0.00 0.00 59 1013.2
20260830172520 72 279 3.0 6.0 0.00 0.00 0.00 60 1013.3
20260830172021 71 217 1.0 6.0 0.00 0.00 0.00 60 1013.3
20260830171539 71 219 2.0 7.0 0.00 0.00 0.00 61 1013.3
20260830171020 70 292 3.0 8.0 0.00 0.00 0.00 62 1013.2
20260830170519 70 247 3.0 8.0 0.00 0.00 0.00 62 1013.2
20260830170039 70 255 4.0 8.0 0.00 0.00 0.00 63 1013.2
20260830165521 69 272 4.0 8.0 0.00 0.00 0.00 63 1013.2
20260830165020 69 283 2.0 7.0 0.00 0.00 0.00 64 1013.2
20260830164542 69 254 2.0 8.0 0.00 0.00 0.00 65 1013.2
20260830164022 68 220 4.0 8.0 0.00 0.00 0.00 65 1013.2
20260830163518 67 228 4.0 8.0 0.00 0.00 0.00 67 1013.1
20260830163037 67 269 3.0 8.0 0.00 0.00 0.00 68 1013.1
20260830162519 66 355 3.0 7.0 0.00 0.00 0.00 67 1013.2
20260830162023 66 270 3.0 8.0 0.00 0.00 0.00 67 1013.2
20260830161537 66 228 3.0 8.0 0.00 0.00 0.00 68 1013.2
20260830161019 66 267 3.0 7.0 0.00 0.00 0.00 69 1013.2
20260830160519 65 269 2.0 7.0 0.00 0.00 0.00 70 1013.3
20260830160035 64 233 5.0 8.0 0.00 0.00 0.00 71 1013.2
20260830155517 64 244 4.0 8.0 0.00 0.00 0.00 72 1013.3
20260830155020 64 243 4.0 9.0 0.00 0.00 0.00 72 1013.3
20260830154537 63 249 4.0 9.0 0.00 0.00 0.00 73 1013.3
20260830154019 63 252 5.0 10.0 0.00 0.00 0.00 73 1013.3
20260830153519 62 221 5.0 10.0 0.00 0.00 0.00 74 1013.2
20260830153039 62 229 5.0 10.0 0.00 0.00 0.00 76 1013.2
20260830152520 61 242 6.0 10.0 0.00 0.00 0.00 77 1013.3
20260830152019 60 235 6.0 10.0 0.00 0.00 0.00 79 1013.4
20260830151537 59 225 3.0 6.0 0.00 0.00 0.00 81 1013.3
20260830151024 57 243 2.0 6.0 0.00 0.00 0.00 83 1013.3
20260830150520 56 192 2.0 4.0 0.00 0.00 0.00 85 1013.3
20260830150039 55 199 1.0 3.0 0.00 0.00 0.00 86 1013.3
20260830145518 55 232 0.0 3.0 0.00 0.00 0.00 87 1013.3
20260830145019 54 79 1.0 3.0 0.00 0.00 0.00 87 1013.2
20260830144536 53 185 0.0 3.0 0.00 0.00 0.00 87 1013.2
20260830144016 52 99 0.0 2.0 0.00 0.00 0.00 88 1013.1
20260830143521 52 0 0.0 2.0 0.00 0.00 0.00 87 1013.2
20260830143038 51 0 0.0 3.0 0.00 0.00 0.00 87 1013.2
20260830142520 51 0 0.0 3.0 0.00 0.00 0.00 87 1013.0
20260830142020 51 79 1.0 3.0 0.00 0.00 0.00 86 1013.0
20260830141550 51 0 0.0 3.0 0.00 0.00 0.00 86 1012.8
20260830141020 50 92 1.0 3.0 0.00 0.00 0.00 86 1012.8
20260830140517 50 0 0.0 2.0 0.00 0.00 0.00 85 1012.7
20260830140045 50 0 0.0 3.0 0.00 0.00 0.00 85 1012.8
20260830135524 50 0 0.0 3.0 0.00 0.00 0.00 85 1012.7
20260830135016 50 30 1.0 3.0 0.00 0.00 0.00 86 1012.6
20260830134540 50 52 1.0 2.0 0.00 0.00 0.00 85 1012.5
20260830134019 50 0 0.0 2.0 0.00 0.00 0.00 85 1012.4
20260830133519 50 0 0.0 4.0 0.00 0.00 0.00 85 1012.3
20260830133053 50 73 2.0 4.0 0.00 0.00 0.00 85 1012.2
20260830132521 50 73 2.0 4.0 0.00 0.00 0.00 85 1012.3
20260830132020 50 69 2.0 4.0 0.00 0.00 0.00 85 1012.2
20260830131536 50 74 2.0 4.0 0.00 0.00 0.00 85 1012.1
20260830131023 50 0 1.0 3.0 0.00 0.00 0.00 84 1012.0
20260830130517 50 80 1.0 4.0 0.00 0.00 0.00 83 1012.1
20260830130037 50 0 0.0 4.0 0.00 0.00 0.00 82 1012.2
20260830125519 51 81 3.0 4.0 0.00 0.00 0.00 82 1012.0
20260830125016 52 74 2.0 4.0 0.00 0.00 0.00 83 1011.9
20260830124538 52 343 0.0 3.0 0.00 0.00 0.00 84 1012.0
20260830124019 52 0 0.0 1.0 0.00 0.00 0.00 83 1011.9
20260830123522 52 0 0.0 0.0 0.00 0.00 0.00 82 1011.9
20260830123040 52 0 0.0 0.0 0.00 0.00 0.00 82 1011.9
20260830122518 52 0 0.0 0.0 0.00 0.00 0.00 82 1011.9
20260830122018 53 0 0.0 1.0 0.00 0.00 0.00 81 1011.9
20260830121539 53 0 0.0 1.0 0.00 0.00 0.00 81 1011.9
20260830121023 53 0 0.0 0.0 0.00 0.00 0.00 80 1011.9
20260830120518 53 0 0.0 1.0 0.00 0.00 0.00 81 1011.9
20260830120037 53 0 0.0 3.0 0.00 0.00 0.00 81 1012.0
20260830115520 53 0 0.0 3.0 0.00 0.00 0.00 81 1012.0
20260830115017 54 70 2.0 3.0 0.00 0.00 0.00 80 1011.9
20260830114554 54 47 0.0 2.0 0.00 0.00 0.00 79 1012.0
20260830114018 54 0 0.0 0.0 0.00 0.00 0.00 80 1011.9
20260830113520 54 0 0.0 0.0 0.00 0.00 0.00 80 1011.8
20260830113035 54 0 0.0 2.0 0.00 0.00 0.00 80 1012.0
20260830112519 55 0 0.0 2.0 0.00 0.00 0.00 80 1011.9
20260830112017 55 0 1.0 2.0 0.00 0.00 0.00 79 1011.9
20260830111536 55 34 1.0 2.0 0.00 0.00 0.00 79 1011.9
20260830111018 55 75 1.0 3.0 0.00 0.00 0.00 79 1011.9
20260830110519 55 75 0.0 3.0 0.00 0.00 0.00 77 1011.8
20260830110039 55 76 1.0 3.0 0.00 0.00 0.00 77 1011.9
20260830105519 55 0 0.0 3.0 0.00 0.00 0.00 77 1011.8
20260830105017 55 0 0.0 3.0 0.00 0.00 0.00 78 1011.7
20260830104542 56 0 0.0 3.0 0.00 0.00 0.00 77 1011.7
20260830104019 56 0 0.0 1.0 0.00 0.00 0.00 77 1011.7
20260830103518 56 0 0.0 3.0 0.00 0.00 0.00 76 1011.8
20260830103039 56 79 0.0 4.0 0.00 0.00 0.00 75 1011.8
20260830102522 56 79 2.0 4.0 0.00 0.00 0.00 74 1011.9
20260830102019 57 79 2.0 4.0 0.00 0.00 0.00 73 1011.9
20260830101536 57 82 0.0 2.0 0.00 0.00 0.00 73 1011.8
20260830101019 57 0 0.0 2.0 0.00 0.00 0.00 73 1011.8
20260830100517 57 0 0.0 2.0 0.00 0.00 0.00 74 1011.8
20260830100035 57 0 0.0 0.0 0.00 0.00 0.00 74 1011.8
20260830095519 57 0 0.0 0.0 0.00 0.00 0.00 74 1011.7
20260830095019 57 0 0.0 0.0 0.00 0.00 0.00 74 1011.8
20260830094536 58 0 0.0 0.0 0.00 0.00 0.00 73 1011.8
20260830094016 58 0 0.0 0.0 0.00 0.00 0.00 73 1011.9
20260830093516 58 0 0.0 0.0 0.00 0.00 0.00 73 1011.9
20260830093036 58 0 0.0 0.0 0.00 0.00 0.00 72 1011.9
20260830092520 58 0 0.0 2.0 0.00 0.00 0.00 74 1011.9
20260830092020 58 0 0.0 2.0 0.00 0.00 0.00 74 1011.9
20260830091538 58 0 0.0 0.0 0.00 0.00 0.00 72 1011.9
20260830091018 58 0 0.0 0.0 0.00 0.00 0.00 72 1012.0
20260830090516 58 0 0.0 0.0 0.00 0.00 0.00 73 1012.0
20260830090050 58 0 0.0 2.0 0.00 0.00 0.00 73 1012.0
20260830085517 59 0 0.0 2.0 0.00 0.00 0.00 71 1012.1
20260830085019 59 0 0.0 0.0 0.00 0.00 0.00 76 1012.1
20260830084537 60 0 0.0 0.0 0.00 0.00 0.00 70 1012.1
20260830084020 60 0 0.0 0.0 0.00 0.00 0.00 70 1012.0
20260830083517 59 0 0.0 1.0 0.00 0.00 0.00 71 1012.0
20260830083034 59 0 0.0 1.0 0.00 0.00 0.00 72 1012.1
20260830082518 60 0 0.0 1.0 0.00 0.00 0.00 69 1012.0
20260830082016 60 0 0.0 1.0 0.00 0.00 0.00 69 1011.9
20260830081541 60 0 0.0 3.0 0.00 0.00 0.00 69 1011.9
20260830081017 60 0 0.0 3.0 0.00 0.00 0.00 69 1011.9
20260830080517 61 101 1.0 4.0 0.00 0.00 0.00 66 1012.0
20260830080036 62 0 1.0 4.0 0.00 0.00 0.00 66 1012.0
20260830075518 63 235 2.0 6.0 0.00 0.00 0.00 66 1011.9
20260830075020 63 247 3.0 6.0 0.00 0.00 0.00 66 1011.9
20260830074538 62 277 3.0 6.0 0.00 0.00 0.00 67 1011.8
20260830074018 62 279 3.0 4.0 0.00 0.00 0.00 68 1011.9
20260830073518 62 264 3.0 4.0 0.00 0.00 0.00 68 1012.0
20260830073048 62 248 1.0 4.0 0.00 0.00 0.00 67 1012.0
20260830072519 62 221 2.0 4.0 0.00 0.00 0.00 66 1011.9
20260830072016 62 209 0.0 2.0 0.00 0.00 0.00 66 1012.0
20260830071535 62 0 0.0 3.0 0.00 0.00 0.00 66 1012.0
20260830071018 63 0 0.0 6.0 0.00 0.00 0.00 63 1012.2
20260830070517 64 217 3.0 6.0 0.00 0.00 0.00 63 1012.2
20260830070036 65 224 4.0 6.0 0.00 0.00 0.00 63 1012.1
20260830065519 65 211 3.0 8.0 0.00 0.00 0.00 63 1012.2
20260830065016 64 224 4.0 8.0 0.00 0.00 0.00 65 1012.1
20260830064536 62 214 4.0 7.0 0.00 0.00 0.00 67 1012.0
20260830064020 61 194 0.0 4.0 0.00 0.00 0.00 68 1012.2
20260830063518 60 0 0.0 0.0 0.00 0.00 0.00 68 1012.3
20260830063039 61 0 0.0 1.0 0.00 0.00 0.00 66 1012.2
20260830062522 62 0 0.0 1.0 0.00 0.00 0.00 64 1012.2
20260830062019 64 0 0.0 2.0 0.00 0.00 0.00 62 1012.3
20260830061541 65 0 0.0 4.0 0.00 0.00 0.00 61 1012.1
20260830061021 65 0 1.0 4.0 0.00 0.00 0.00 61 1012.1
20260830060516 64 235 1.0 2.0 0.00 0.00 0.00 62 1012.1
20260830060035 64 0 0.0 2.0 0.00 0.00 0.00 63 1012.1
20260830055520 64 0 0.0 4.0 0.00 0.00 0.00 66 1012.2
20260830055018 65 0 1.0 4.0 0.00 0.00 0.00 61 1012.2
20260830054535 64 0 0.0 3.0 0.00 0.00 0.00 62 1012.0
20260830054020 64 0 0.0 4.0 0.00 0.00 0.00 62 1012.0
20260830053518 66 61 2.0 4.0 0.00 0.00 0.00 64 1012.0
20260830053035 67 0 0.0 4.0 0.00 0.00 0.00 62 1011.9
20260830052519 68 271 2.0 7.0 0.00 0.00 0.00 55 1011.9
20260830052020 68 250 3.0 10.0 0.00 0.00 0.00 55 1011.9
20260830051536 69 239 5.0 11.0 0.00 0.00 0.00 55 1011.9
20260830051018 69 230 8.0 11.0 0.00 0.00 0.00 56 1011.7
20260830050518 69 224 7.0 11.0 0.00 0.00 0.00 56 1011.7
20260830050043 69 244 8.0 11.0 0.00 0.00 0.00 56 1011.8
20260830045519 69 232 7.0 11.0 0.00 0.00 0.00 55 1011.9
20260830045017 69 229 5.0 8.0 0.00 0.00 0.00 56 1011.8
20260830044538 68 237 5.0 8.0 0.00 0.00 0.00 57 1011.9
20260830044018 68 229 5.0 7.0 0.00 0.00 0.00 56 1011.9
20260830043518 69 252 5.0 8.0 0.00 0.00 0.00 55 1012.0
20260830043044 69 257 5.0 8.0 0.00 0.00 0.00 55 1011.9
20260830042519 70 244 4.0 9.0 0.00 0.00 0.00 54 1011.8
20260830042018 70 230 5.0 9.0 0.00 0.00 0.00 54 1011.8
20260830041542 70 229 6.0 9.0 0.00 0.00 0.00 53 1011.7
20260830041017 70 231 5.0 9.0 0.00 0.00 0.00 52 1011.8
20260830040517 70 244 4.0 8.0 0.00 0.00 0.00 52 1011.8
20260830040046 70 186 1.0 5.0 0.00 0.00 0.00 51 1011.6
20260830035516 71 190 2.0 6.0 0.00 0.00 0.00 51 1011.5
20260830035020 71 223 3.0 6.0 0.00 0.00 0.00 51 1011.5
20260830034536 71 227 1.0 3.0 0.00 0.00 0.00 51 1011.4
20260830034018 72 231 1.0 3.0 0.00 0.00 0.00 49 1011.3
20260830033519 71 0 0.0 6.0 0.00 0.00 0.00 50 1011.2